Theta_e
348 349 349 349 348 347 346 345 344 342 343 344 345 342 341 341 341 342 342 342 343 342 341 340 341 340 338 342 342 344 343 345 345
348 349 349 349 348 347 347 345 345 344 343 343 344 344 344 344 343 344 345 344 343 343 342 339 336 335 337 341 341 344 345 344 345
345 348 349 349 349 348 345 343 342 344 344 342 343 342 343 344 343 343 344 344 343 343 343 342 335 333 338 341 341 343 344 347 346
340 346 348 349 350 349 348 347 344 342 344 344 342 342 342 343 343 343 344 344 344 343 343 344 341 334 335 339 341 343 344 344 346
337 342 346 347 348 350 350 348 347 345 343 344 344 343 343 343 343 343 344 344 344 345 344 344 345 340 334 337 340 342 343 344 345
333 341 344 346 346 348 350 350 348 348 346 346 345 346 346 345 345 344 344 345 345 344 345 344 345 343 337 335 337 340 343 345 346
326 330 338 344 346 347 347 348 348 348 347 348 348 346 346 347 347 346 346 346 346 346 345 345 345 345 339 336 335 336 339 343 346
336 334 330 339 344 342 343 346 347 347 348 348 348 347 347 347 347 347 347 347 346 345 345 345 345 345 343 338 336 335 334 339 342
343 343 344 339 335 343 342 342 345 345 346 346 346 346 346 346 347 347 347 347 346 346 344 345 345 345 345 343 337 333 332 332 336
340 342 343 346 341 333 334 335 338 343 343 345 346 344 345 346 346 347 346 347 347 346 346 345 345 345 345 344 341 335 333 332 332
337 340 342 344 346 334 329 335 344 344 347 345 346 344 345 346 346 346 347 347 347 346 346 346 344 344 345 344 342 337 333 332 333
329 337 343 345 347 333 330 342 344 344 345 345 346 345 345 346 345 346 346 347 346 346 346 345 344 343 343 343 341 337 334 334 335
339 340 346 346 340 341 341 343 346 344 345 345 344 344 345 346 346 345 345 345 346 346 346 345 344 343 341 340 339 337 336 336 338
337 342 347 350 345 345 342 344 346 343 345 344 344 345 346 346 346 346 346 346 346 346 347 346 346 346 345 344 344 345 345 346 346
342 344 345 347 347 346 346 344 344 344 344 345 345 346 346 346 347 346 347 348 348 348 348 348 348 348 349 350 350 351 352 353 352
332 345 344 347 348 346 346 346 346 346 346 346 346 346 347 346 347 347 348 348 349 349 350 350 350 351 351 352 353 353 354 354 355
318 335 344 344 347 348 348 346 346 346 346 346 346 346 347 347 348 348 349 349 349 350 351 351 353 354 354 353 353 354 354 354 355
315 316 327 341 346 345 347 348 351 354 355 353 349 349 349 349 351 351 351 351 355 352 352 354 353 353 356 355 354 353 354 354 353
316 315 314 314 319 343 344 344 342 342 343 348 353 355 354 354 353 353 353 355 354 354 355 355 355 355 355 357 356 356 357 356 355
315 315 314 314 313 314 331 344 343 343 340 338 339 342 347 352 346 343 347 354 354 355 355 356 356 356 357 357 358 357 357 358 358
Wind_Speed
26 32 34 37 38 39 44 46 48 48 47 47 45 44 43 40 38 36 34 32 29 25 26 28 25 22 20 17 14 12 12 11 11
23 29 35 38 39 41 42 47 50 50 48 48 48 47 45 43 41 38 36 35 31 28 24 22 25 23 20 20 17 15 12 13 12
23 27 31 34 37 42 47 46 48 49 47 46 47 48 47 45 44 41 35 33 33 31 25 20 20 21 21 20 20 18 16 15 14
28 28 32 34 38 43 48 46 48 50 49 46 46 45 45 46 45 43 39 36 32 31 29 24 22 22 24 23 22 21 20 18 17
28 32 32 34 36 35 36 45 47 52 52 50 47 45 44 44 44 43 42 39 35 32 31 28 25 25 26 25 26 24 23 21 21
16 22 23 25 27 35 38 42 48 47 51 52 51 49 47 45 45 44 43 40 38 34 32 32 29 29 29 29 29 27 26 24 23
11 15 22 25 27 34 40 42 47 49 49 45 47 49 50 49 48 44 42 40 38 35 34 33 33 31 31 31 31 30 29 28 27
8 9 12 20 28 36 41 43 44 46 47 48 45 46 46 46 43 42 41 40 37 33 32 33 34 33 33 32 33 32 32 31 30
14 14 14 15 23 30 38 42 47 48 48 49 47 46 44 41 40 40 41 40 39 36 33 33 34 36 35 34 35 34 33 32 33
13 17 19 18 22 30 39 42 44 49 48 49 50 46 42 40 39 40 39 38 39 38 36 34 35 36 37 37 36 36 35 34 35
15 19 22 23 24 27 35 39 39 42 42 49 50 46 41 39 39 38 37 38 38 37 36 36 36 36 37 38 38 37 36 36 37
15 18 22 24 23 27 30 37 41 44 43 46 46 43 41 38 36 34 34 35 35 34 35 36 36 36 37 38 37 36 35 36 39
16 15 17 17 14 20 28 36 40 43 41 43 42 40 41 39 37 35 34 31 30 30 31 32 32 34 35 36 35 33 32 32 36
16 15 14 6 12 23 30 35 37 35 37 38 36 37 40 37 34 32 31 31 31 33 33 33 34 34 35 35 34 33 32 32 34
29 28 21 13 11 21 25 26 27 31 33 33 32 33 33 31 31 30 31 33 33 32 32 33 33 33 33 33 31 28 27 28 31
35 33 30 24 16 17 20 23 24 25 25 27 26 27 27 27 27 27 29 29 30 29 30 30 30 30 30 28 26 25 25 25 27
38 36 34 27 28 27 22 13 11 12 15 18 22 25 26 25 25 27 28 28 28 29 29 30 29 28 27 25 25 25 23 23 25
33 36 37 34 31 29 28 24 21 17 11 10 18 20 22 24 25 25 25 25 25 28 28 27 27 27 24 24 24 21 16 17 20
25 29 29 33 32 27 23 21 19 17 14 12 11 10 14 16 17 21 18 21 27 26 25 24 24 24 24 22 20 19 18 20 20
18 20 23 26 27 24 21 19 16 14 13 10 5 3 2 5 13 11 32 38 27 26 25 26 24 23 24 22 19 18 19 20 19
Wind_Direction
210 209 210 209 207 206 209 213 219 224 221 218 217 218 220 223 227 230 233 237 238 239 241 244 246 248 250 243 238 238 235 241 239
207 208 209 207 206 207 210 216 220 225 225 223 221 222 223 225 226 229 234 236 236 241 244 248 243 246 242 233 231 233 236 240 240
216 211 211 210 208 208 215 220 223 224 225 225 224 222 224 225 227 229 231 236 236 236 241 244 240 233 231 229 225 229 236 242 242
220 212 211 209 211 212 216 216 218 223 222 222 221 222 225 227 228 229 231 234 235 235 237 240 239 233 233 232 228 227 234 241 247
219 218 217 213 213 210 209 211 213 220 223 220 221 221 222 225 228 232 235 235 236 237 236 237 240 237 233 233 230 230 234 239 245
232 227 228 221 210 208 208 210 213 215 221 222 221 222 223 224 228 231 233 234 236 238 237 236 238 238 234 233 233 232 234 236 242
246 236 227 215 211 210 209 213 214 216 221 218 220 222 224 226 227 229 233 235 237 237 238 237 235 239 237 235 236 237 236 236 237
273 247 224 215 218 221 219 211 219 216 217 223 218 222 223 225 228 230 232 234 234 231 231 235 236 238 240 237 237 237 237 236 237
295 289 276 247 231 226 222 221 217 221 219 223 222 221 221 224 226 227 228 230 231 231 229 231 235 236 238 239 238 237 237 237 239
306 296 288 274 253 233 231 229 227 220 221 219 221 221 219 220 224 226 227 228 230 231 231 233 234 236 238 239 239 239 238 238 241
312 302 291 279 265 245 231 226 213 213 208 216 218 219 218 220 223 224 225 226 228 230 232 235 235 236 238 240 241 240 240 239 242
316 302 292 278 257 233 227 206 201 209 209 214 216 218 217 219 220 220 222 225 227 229 232 234 236 237 238 240 241 242 241 241 243
347 329 312 290 234 204 200 194 190 204 207 211 216 217 218 218 218 217 221 223 225 229 233 237 240 241 241 241 242 242 241 242 244
19 10 359 354 176 192 199 190 189 205 210 217 218 215 219 220 219 220 218 218 221 224 227 231 234 237 241 244 244 243 242 241 242
46 46 37 54 134 164 179 193 200 206 214 218 218 219 222 222 222 222 223 224 227 229 232 235 238 240 242 242 241 237 234 232 236
46 52 49 48 78 134 151 177 192 200 210 217 216 216 214 216 219 220 222 222 223 225 228 230 232 233 235 236 237 234 230 231 235
45 50 53 49 60 75 95 123 162 198 210 220 220 215 211 211 213 214 217 221 222 224 224 224 223 227 230 233 237 239 237 235 234
38 43 51 55 59 66 71 89 102 112 128 184 205 208 209 208 213 215 216 218 219 222 224 226 228 230 227 227 231 235 240 240 236
28 31 35 44 48 57 60 70 78 84 92 110 127 164 195 209 216 222 217 227 225 220 223 230 230 232 239 237 235 237 229 226 228
23 25 29 30 30 40 53 55 58 57 57 56 110 178 170 185 179 293 191 224 222 224 228 233 234 235 238 238 239 231 226 226 227